UPDATE Mit 1. Juli wird auf eine neue Wetterseite umgestellt
Wer schon probieren möchte kann unter https://wetter.hildner.at gerne testen
Die Seite befindet sich noch im Aufbau
Thunderstorms From: 24-07-2021 15:00 Until: 25-07-2021 06:00 warning for: Thunderstorms Level: Yellow info button

Rindlberg West more information Rindlberg West


Stuetzi - Rindlberg Ost more information Stuetzi - Rindlberg Ost


warning for Thunderstorms more information blitzortung!


Rain radar more information rain snow radar


You find our weather info also at:

Weather Underground

AWEKAS



IOBERSTE7 History tables / reports. Script startWUhistory.php

Select another period ( hide this area )

Units Period Custom range Directly to
Metric English Both
Daily Weekly Monthly Yearly
use both date-selectors for a custom range
previous Day
With this date

WeatherUnderground graphs for this period ( click here ) Loading the graph can take up to a minute!


Daily Summary for Saturday Jul 24 2021
Time Temp. ( °C ) Dew pt. ( °C ) Wind ( km/h ) from Gust ( km/h ) Pressure ( hPa ) Humid.( % ) Rainrate ( cm )
High-2,7 -9,4 25,7 ESE ( 502/990 ) 41,8 0,0 83 -
Average-7,9 -11,9 7,7 Calm #97/208 11,9 0,0 65 -
Low-12,3 -14,5 -   0,0 0,0 43 -
Daily Tabular details for Saturday Jul 24 2021
Time Temp. ( °C ) Dew pt. ( °C ) Wind ( km/h ) from Gust ( km/h ) Pressure ( hPa ) Humid.( % ) Rainrate ( cm )
00:04 -11,2 -13,4   Calm   0,0 76 -
00:09 -11,2 -13,5   Calm   0,0 76 -
00:14 -11,3 -13,6   Calm   0,0 76 -
00:19 -11,3 -13,7   Calm   0,0 75 -
00:24 -11,3 -13,8   Calm   0,0 74 -
00:29 -11,3 -13,8   Calm   0,0 74 -
00:34 -11,3 -13,8   Calm   0,0 75 -
00:39 -11,4 -13,8   Calm   0,0 75 -
00:44 -11,4 -13,8   Calm   0,0 75 -
00:49 -11,4 -13,7   Calm   0,0 76 -
00:54 -11,4 -13,8   Calm   0,0 75 -
00:59 -11,5 -13,8   Calm   0,0 76 -
01:04 -11,5 -13,6   Calm   0,0 78 -
01:09 -11,6 -13,7   Calm   0,0 78 -
01:14 -11,6 -13,7   Calm   0,0 78 -
01:19 -11,6 -13,8   Calm   0,0 76 -
01:24 -11,7 -13,7   Calm   0,0 78 -
01:29 -11,7 -13,7   Calm   0,0 78 -
01:34 -11,7 -13,7   Calm   0,0 78 -
01:39 -11,7 -14,0   Calm   0,0 76 -
01:44 -11,7 -14,0   Calm   0,0 76 -
01:49 -11,8 -14,1   Calm   0,0 75 -
01:54 -11,8 -14,1   Calm   0,0 75 -
01:59 -11,8 -14,1   Calm   0,0 76 -
02:04 -11,9 -14,1   Calm   0,0 76 -
02:09 -11,9 -14,0   Calm   0,0 78 -
02:14 -11,9 -14,0   Calm   0,0 78 -
02:19 -12,0 -14,1   Calm   0,0 78 -
02:24 -12,0 -14,1   Calm   0,0 78 -
02:29 -12,1 -14,1 11,3 ESE 12,9 0,0 78 -
02:34 -12,1 -14,1 9,7 ESE 9,7 0,0 78 -
02:39 -12,1 -14,1 8,0 ESE 9,7 0,0 79 -
02:44 -12,2 -14,1   Calm   0,0 79 -
02:49 -12,2 -14,1   Calm 8,0 0,0 79 -
02:54 -12,2 -14,1   Calm   0,0 79 -
02:59 -12,2 -14,1   Calm   0,0 79 -
03:04 -12,2 -14,1   Calm   0,0 79 -
03:09 -12,2 -14,3   Calm   0,0 78 -
03:14 -12,2 -14,5   Calm   0,0 76 -
03:19 -12,2 -14,5   Calm   0,0 76 -
03:24 -12,3 -14,5   Calm   0,0 76 -
03:29 -12,3 -14,3   Calm   0,0 78 -
03:34 -12,3 -14,3   Calm   0,0 79 -
03:39 -12,3 -14,3   Calm   0,0 79 -
03:44 -12,3 -14,3   Calm   0,0 79 -
03:49 -12,3 -14,2   Calm   0,0 79 -
03:54 -12,3 -14,3   Calm   0,0 79 -
03:59 -12,3 -14,3   Calm   0,0 78 -
04:04 -12,3 -14,3   Calm   0,0 78 -
04:09 -12,3 -14,3   Calm   0,0 79 -
04:14 -12,3 -14,3   Calm   0,0 79 -
04:19 -12,3 -14,1   Calm   0,0 80 -
04:24 -12,3 -14,1   Calm   0,0 80 -
04:29 -12,3 -14,1   Calm   0,0 80 -
04:34 -12,2 -14,1   Calm   0,0 80 -
04:39 -12,2 -14,0   Calm   0,0 80 -
04:44 -12,2 -14,0   Calm   0,0 80 -
04:49 -12,2 -14,0   Calm   0,0 80 -
04:54 -12,1 -13,9   Calm   0,0 80 -
04:59 -12,1 -13,9   Calm   0,0 80 -
05:04 -12,1 -13,8   Calm   0,0 81 -
05:09 -12,0 -13,7   Calm   0,0 81 -
05:14 -11,9 -13,7   Calm   0,0 81 -
05:19 -11,9 -13,6   Calm   0,0 81 -
05:24 -11,8 -13,6   Calm   0,0 81 -
05:29 -11,8 -13,5   Calm   0,0 81 -
05:34 -11,8 -13,5   Calm   0,0 81 -
05:39 -11,7 -13,5 8,0 NE 11,3 0,0 81 -
05:44 -11,7 -13,4   Calm   0,0 81 -
05:49 -11,7 -13,4   Calm   0,0 81 -
05:54 -11,7 -13,6   Calm   0,0 80 -
05:59 -11,7 -13,5   Calm   0,0 80 -
06:04 -11,7 -13,4   Calm   0,0 81 -
06:09 -11,6 -13,4   Calm   0,0 81 -
06:14 -11,6 -13,4   Calm   0,0 81 -
06:19 -11,6 -13,3   Calm   0,0 81 -
06:24 -11,5 -13,2   Calm   0,0 81 -
06:29 -11,4 -13,0   Calm   0,0 82 -
06:34 -11,3 -12,9   Calm   0,0 82 -
06:39 -11,2 -12,9   Calm   0,0 82 -
06:44 -11,1 -12,8   Calm   0,0 82 -
06:49 -10,9 -12,5   Calm 8,0 0,0 83 -
06:54 -10,8 -12,4   Calm   0,0 83 -
06:59 -10,7 -12,3   Calm 8,0 0,0 83 -
07:04 -10,6 -12,1   Calm 8,0 0,0 83 -
07:09 -10,3 -11,9   Calm   0,0 83 -
07:14 -10,0 -11,6   Calm   0,0 83 -
07:19 -9,7 -11,4   Calm   0,0 82 -
07:24 -9,4 -11,3   Calm 17,7 0,0 82 -
07:29 -9,2 -11,2 8,0 East 9,7 0,0 80 -
07:34 -8,9 -11,1   Calm 8,0 0,0 79 -
07:39 -8,7 -11,1 8,0 ESE 9,7 0,0 76 -
07:44 -8,5 -11,1 8,0 ESE 19,3 0,0 75 -
07:49 -8,3 -11,0   Calm 8,0 0,0 74 -
07:54 -8,2 -11,1   Calm 12,9 0,0 73 -
07:59 -8,1 -11,0   Calm 8,0 0,0 71 -
08:04 -7,9 -10,9 9,7 ESE 19,3 0,0 71 -
08:09 -7,8 -11,1 12,9 East 19,3 0,0 69 -
08:14 -7,7 -11,0 9,7 East 19,3 0,0 68 -
08:19 -7,6 -10,9 12,9 SE 20,9 0,0 68 -
08:24 -7,4 -10,9 14,5 ESE 25,7 0,0 67 -
08:29 -7,4 -10,9 9,7 East 16,1 0,0 67 -
08:34 -7,3 -10,9 8,0 East 12,9 0,0 66 -
08:39 -7,2 -10,9 12,9 ESE 24,1 0,0 66 -
08:44 -7,1 -10,9 8,0 ENE 12,9 0,0 65 -
08:49 -7,0 -11,0 9,7 ESE 16,1 0,0 63 -
08:54 -6,9 -11,0 11,3 ESE 12,9 0,0 63 -
08:59 -6,8 -11,0 12,9 ESE 19,3 0,0 62 -
09:04 -6,8 -11,0 16,1 ESE 19,3 0,0 62 -
09:09 -6,7 -10,9 8,0 East 19,3 0,0 62 -
09:14 -6,7 -11,0 11,3 East 24,1 0,0 61 -
09:19 -6,6 -11,1 12,9 ESE 19,3 0,0 60 -
09:24 -6,6 -11,0 16,1 ESE 20,9 0,0 60 -
09:29 -6,5 -10,9 8,0 ENE 19,3 0,0 60 -
09:34 -6,5 -11,2 22,5 East 41,8 0,0 58 -
09:39 -6,5 -11,2 19,3 East 25,7 0,0 58 -
09:44 -6,4 -11,4 24,1 East 38,6 0,0 57 -
09:49 -6,4 -11,5 19,3 East 35,4 0,0 56 -
09:54 -6,4 -11,4 19,3 East 35,4 0,0 56 -
09:59 -6,3 -11,6 19,3 East 27,4 0,0 55 -
10:04 -6,2 -11,2 14,5 ESE 19,3 0,0 57 -
10:09 -6,1 -11,2 22,5 East 40,2 0,0 57 -
10:14 -6,0 -11,2 9,7 East 24,1 0,0 55 -
10:19 -6,0 -11,1 16,1 East 24,1 0,0 56 -
10:24 -6,0 -11,2 17,7 ENE 24,1 0,0 55 -
10:29 -6,0 -11,2 19,3 ESE 27,4 0,0 55 -
10:34 -5,8 -10,9 19,3 East 33,8 0,0 56 -
10:39 -5,8 -11,1 20,9 ESE 37,0 0,0 55 -
10:44 -5,7 -10,8 20,9 ESE 27,4 0,0 56 -
10:49 -5,6 -10,7 19,3 East 27,4 0,0 56 -
10:54 -5,6 -10,9 19,3 East 27,4 0,0 55 -
10:59 -5,7 -10,9 14,5 ESE 27,4 0,0 55 -
11:04 -5,6 -10,9 22,5 ESE 25,7 0,0 55 -
11:09 -5,4 -10,7 24,1 ESE 27,4 0,0 55 -
11:14 -5,3 -10,7 8,0 ESE 19,3 0,0 55 -
11:19 -5,3 -10,7 9,7 ESE 11,3 0,0 55 -
11:24 -5,3 -10,6 8,0 East 17,7 0,0 55 -
11:29 -5,3 -10,6 12,9 East 19,3 0,0 55 -
11:34 -5,3 -10,8 9,7 East 16,1 0,0 54 -
11:39 -5,3 -10,7 12,9 East 17,7 0,0 54 -
11:44 -5,3 -10,7 8,0 ESE 9,7 0,0 54 -
11:49 -5,1 -10,4 14,5 ESE 19,3 0,0 55 -
11:54 -5,0 -10,3 16,1 East 20,9 0,0 55 -
11:59 -4,8 -10,2 24,1 ESE 35,4 0,0 54 -
12:04 -4,8 -10,2 24,1 ESE 25,7 0,0 54 -
12:09 -4,8 -10,4 14,5 ESE 17,7 0,0 53 -
12:14 -4,7 -10,2 14,5 ESE 24,1 0,0 54 -
12:19 -4,7 -10,3 8,0 East 9,7 0,0 53 -
12:24 -4,7 -10,4   Calm 12,9 0,0 53 -
12:29 -4,7 -10,3 17,7 ESE 25,7 0,0 53 -
12:34 -4,4 -10,2 25,7 SE 29,0 0,0 53 -
12:39 -4,3 -10,2 22,5 SE 25,7 0,0 52 -
12:44 -4,2 -10,2 24,1 ESE 33,8 0,0 51 -
12:49 -4,1 -10,2 16,1 ESE 19,3 0,0 51 -
12:54 -4,1 -10,1 16,1 SE 17,7 0,0 51 -
12:59 -4,1 -10,1 8,0 ESE 9,7 0,0 51 -
13:04 -4,0 -10,1 19,3 ESE 25,7 0,0 51 -
13:09 -4,0 -10,1 16,1 ESE 25,7 0,0 51 -
13:14 -3,9 -10,1 17,7 ESE 19,3 0,0 50 -
13:19 -3,8 -10,1 17,7 SSE 20,9 0,0 50 -
13:24 -3,8 -10,0 11,3 South 12,9 0,0 50 -
13:29 -3,9 -10,1 9,7 ENE 17,7 0,0 50 -
13:34 -3,9 -10,1 19,3 ENE 27,4 0,0 50 -
13:39 -3,8 -10,1 17,7 ESE 25,7 0,0 50 -
13:44 -3,6 -9,8 11,3 ESE 19,3 0,0 50 -
13:49 -3,6 -10,0 9,7 ENE 9,7 0,0 49 -
13:54 -3,7 -10,2 9,7 SSE 17,7 0,0 49 -
13:59 -3,4 -9,6 16,1 SW 17,7 0,0 50 -
14:04 -3,3 -9,6 16,1 SSW 19,3 0,0 50 -
14:09 -3,1 -9,7 11,3 WSW 20,9 0,0 49 -
14:14 -3,1 -9,7 14,5 West 17,7 0,0 48 -
14:19 -3,1 -9,7 11,3 NNW 16,1 0,0 48 -
14:24 -2,9 -9,4 22,5 South 25,7 0,0 49 -
14:29 -2,9 -9,9 9,7 South 11,3 0,0 46 -
14:34 -2,9 -10,1   Calm 9,7 0,0 45 -
14:39 -2,9 -9,9 19,3 ESE 25,7 0,0 46 -
14:44 -2,8 -9,7 19,3 ESE 24,1 0,0 47 -
14:49 -3,0 -9,8 16,1 ESE 19,3 0,0 47 -
14:54 -3,0 -10,2 16,1 ESE 22,5 0,0 45 -
14:59 -2,9 -10,0 11,3 SW 12,9 0,0 46 -
15:04 -2,9 -10,1 8,0 NNW 12,9 0,0 45 -
15:09 -2,8 -9,9 14,5 ESE 17,7 0,0 46 -
15:14 -2,7 -9,9 14,5 ESE 19,3 0,0 45 -
15:19 -2,7 -9,9 12,9 ESE 19,3 0,0 45 -
15:24 -2,7 -10,1 11,3 ESE 12,9 0,0 44 -
15:29 -2,7 -10,3   Calm 11,3 0,0 43 -
15:34 -2,8 -10,1   Calm   0,0 45 -
15:39 -2,9 -10,3   Calm 8,0 0,0 44 -
15:44 -3,2 -10,3   Calm   0,0 45 -
15:49 -3,2 -10,2   Calm 16,1 0,0 46 -
15:54 -3,3 -10,2 17,7 ESE 25,7 0,0 46 -
15:59 -3,4 -10,3 11,3 East 16,1 0,0 46 -
16:04 -3,7 -10,6 12,9 East 19,3 0,0 46 -
16:09 -3,8 -10,6 12,9 ESE 19,3 0,0 47 -
16:14 -3,8 -10,4 14,5 ESE 19,3 0,0 48 -
16:19 -3,8 -10,4 9,7 ESE 17,7 0,0 48 -
16:24 -3,8 -10,4 9,7 East 17,7 0,0 48 -
16:29 -3,9 -10,4 9,7 ESE 19,3 0,0 48 -
16:34 -3,9 -10,3 16,1 East 19,3 0,0 49 -
16:39 -3,9 -10,4 16,1 ESE 17,7 0,0 49 -
16:44 -4,0 -10,4 16,1 East 24,1 0,0 49 -
16:49 -4,1 -10,4 16,1 ESE 17,7 0,0 49 -
16:54 -4,1 -10,4   Calm 8,0 0,0 49 -
16:59 -4,2 -10,5 16,1 ESE 25,7 0,0 49 -
17:04 -4,3 -10,6 16,1 East 12,9 0,0 49 -
17:09 -4,3 -10,4 8,0 ESE 12,9 0,0 50 -
17:14 -4,3 -10,5 9,7 East 12,9 0,0 50 -
17:19 -4,3 -10,4 11,3 East 27,4 0,0 50 -
Daily Summary for Saturday Jul 24 2021
Time Temp. ( °C ) Dew pt. ( °C ) Wind ( km/h ) from Gust ( km/h ) Pressure ( hPa ) Humid.( % ) Rainrate ( cm )
High-2,7 -9,4 25,7 ESE ( 502/990 ) 41,8 0,0 83 -
Average-7,9 -11,9 7,7 Calm #97/208 11,9 0,0 65 -
Low-12,3 -14,5 -   0,0 0,0 43 -
Daily Tabular details for Saturday Jul 24 2021
Time Temp. ( °C ) Dew pt. ( °C ) Wind ( km/h ) from Gust ( km/h ) Pressure ( hPa ) Humid.( % ) Rainrate ( cm )
00:04 -11,2 -13,4   Calm   0,0 76 -
00:09 -11,2 -13,5   Calm   0,0 76 -
00:14 -11,3 -13,6   Calm   0,0 76 -
00:19 -11,3 -13,7   Calm   0,0 75 -
00:24 -11,3 -13,8   Calm   0,0 74 -
00:29 -11,3 -13,8   Calm   0,0 74 -
00:34 -11,3 -13,8   Calm   0,0 75 -
00:39 -11,4 -13,8   Calm   0,0 75 -
00:44 -11,4 -13,8   Calm   0,0 75 -
00:49 -11,4 -13,7   Calm   0,0 76 -
00:54 -11,4 -13,8   Calm   0,0 75 -
00:59 -11,5 -13,8   Calm   0,0 76 -
01:04 -11,5 -13,6   Calm   0,0 78 -
01:09 -11,6 -13,7   Calm   0,0 78 -
01:14 -11,6 -13,7   Calm   0,0 78 -
01:19 -11,6 -13,8   Calm   0,0 76 -
01:24 -11,7 -13,7   Calm   0,0 78 -
01:29 -11,7 -13,7   Calm   0,0 78 -
01:34 -11,7 -13,7   Calm   0,0 78 -
01:39 -11,7 -14,0   Calm   0,0 76 -
01:44 -11,7 -14,0   Calm   0,0 76 -
01:49 -11,8 -14,1   Calm   0,0 75 -
01:54 -11,8 -14,1   Calm   0,0 75 -
01:59 -11,8 -14,1   Calm   0,0 76 -
02:04 -11,9 -14,1   Calm   0,0 76 -
02:09 -11,9 -14,0   Calm   0,0 78 -
02:14 -11,9 -14,0   Calm   0,0 78 -
02:19 -12,0 -14,1   Calm   0,0 78 -
02:24 -12,0 -14,1   Calm   0,0 78 -
02:29 -12,1 -14,1 11,3 ESE 12,9 0,0 78 -
02:34 -12,1 -14,1 9,7 ESE 9,7 0,0 78 -
02:39 -12,1 -14,1 8,0 ESE 9,7 0,0 79 -
02:44 -12,2 -14,1   Calm   0,0 79 -
02:49 -12,2 -14,1   Calm 8,0 0,0 79 -
02:54 -12,2 -14,1   Calm   0,0 79 -
02:59 -12,2 -14,1   Calm   0,0 79 -
03:04 -12,2 -14,1   Calm   0,0 79 -
03:09 -12,2 -14,3   Calm   0,0 78 -
03:14 -12,2 -14,5   Calm   0,0 76 -
03:19 -12,2 -14,5   Calm   0,0 76 -
03:24 -12,3 -14,5   Calm   0,0 76 -
03:29 -12,3 -14,3   Calm   0,0 78 -
03:34 -12,3 -14,3   Calm   0,0 79 -
03:39 -12,3 -14,3   Calm   0,0 79 -
03:44 -12,3 -14,3   Calm   0,0 79 -
03:49 -12,3 -14,2   Calm   0,0 79 -
03:54 -12,3 -14,3   Calm   0,0 79 -
03:59 -12,3 -14,3   Calm   0,0 78 -
04:04 -12,3 -14,3   Calm   0,0 78 -
04:09 -12,3 -14,3   Calm   0,0 79 -
04:14 -12,3 -14,3   Calm   0,0 79 -
04:19 -12,3 -14,1   Calm   0,0 80 -
04:24 -12,3 -14,1   Calm   0,0 80 -
04:29 -12,3 -14,1   Calm   0,0 80 -
04:34 -12,2 -14,1   Calm   0,0 80 -
04:39 -12,2 -14,0   Calm   0,0 80 -
04:44 -12,2 -14,0   Calm   0,0 80 -
04:49 -12,2 -14,0   Calm   0,0 80 -
04:54 -12,1 -13,9   Calm   0,0 80 -
04:59 -12,1 -13,9   Calm   0,0 80 -
05:04 -12,1 -13,8   Calm   0,0 81 -
05:09 -12,0 -13,7   Calm   0,0 81 -
05:14 -11,9 -13,7   Calm   0,0 81 -
05:19 -11,9 -13,6   Calm   0,0 81 -
05:24 -11,8 -13,6   Calm   0,0 81 -
05:29 -11,8 -13,5   Calm   0,0 81 -
05:34 -11,8 -13,5   Calm   0,0 81 -
05:39 -11,7 -13,5 8,0 NE 11,3 0,0 81 -
05:44 -11,7 -13,4   Calm   0,0 81 -
05:49 -11,7 -13,4   Calm   0,0 81 -
05:54 -11,7 -13,6   Calm   0,0 80 -
05:59 -11,7 -13,5   Calm   0,0 80 -
06:04 -11,7 -13,4   Calm   0,0 81 -
06:09 -11,6 -13,4   Calm   0,0 81 -
06:14 -11,6 -13,4   Calm   0,0 81 -
06:19 -11,6 -13,3   Calm   0,0 81 -
06:24 -11,5 -13,2   Calm   0,0 81 -
06:29 -11,4 -13,0   Calm   0,0 82 -
06:34 -11,3 -12,9   Calm   0,0 82 -
06:39 -11,2 -12,9   Calm   0,0 82 -
06:44 -11,1 -12,8   Calm   0,0 82 -
06:49 -10,9 -12,5   Calm 8,0 0,0 83 -
06:54 -10,8 -12,4   Calm   0,0 83 -
06:59 -10,7 -12,3   Calm 8,0 0,0 83 -
07:04 -10,6 -12,1   Calm 8,0 0,0 83 -
07:09 -10,3 -11,9   Calm   0,0 83 -
07:14 -10,0 -11,6   Calm   0,0 83 -
07:19 -9,7 -11,4   Calm   0,0 82 -
07:24 -9,4 -11,3   Calm 17,7 0,0 82 -
07:29 -9,2 -11,2 8,0 East 9,7 0,0 80 -
07:34 -8,9 -11,1   Calm 8,0 0,0 79 -
07:39 -8,7 -11,1 8,0 ESE 9,7 0,0 76 -
07:44 -8,5 -11,1 8,0 ESE 19,3 0,0 75 -
07:49 -8,3 -11,0   Calm 8,0 0,0 74 -
07:54 -8,2 -11,1   Calm 12,9 0,0 73 -
07:59 -8,1 -11,0   Calm 8,0 0,0 71 -
08:04 -7,9 -10,9 9,7 ESE 19,3 0,0 71 -
08:09 -7,8 -11,1 12,9 East 19,3 0,0 69 -
08:14 -7,7 -11,0 9,7 East 19,3 0,0 68 -
08:19 -7,6 -10,9 12,9 SE 20,9 0,0 68 -
08:24 -7,4 -10,9 14,5 ESE 25,7 0,0 67 -
08:29 -7,4 -10,9 9,7 East 16,1 0,0 67 -
08:34 -7,3 -10,9 8,0 East 12,9 0,0 66 -
08:39 -7,2 -10,9 12,9 ESE 24,1 0,0 66 -
08:44 -7,1 -10,9 8,0 ENE 12,9 0,0 65 -
08:49 -7,0 -11,0 9,7 ESE 16,1 0,0 63 -
08:54 -6,9 -11,0 11,3 ESE 12,9 0,0 63 -
08:59 -6,8 -11,0 12,9 ESE 19,3 0,0 62 -
09:04 -6,8 -11,0 16,1 ESE 19,3 0,0 62 -
09:09 -6,7 -10,9 8,0 East 19,3 0,0 62 -
09:14 -6,7 -11,0 11,3 East 24,1 0,0 61 -
09:19 -6,6 -11,1 12,9 ESE 19,3 0,0 60 -
09:24 -6,6 -11,0 16,1 ESE 20,9 0,0 60 -
09:29 -6,5 -10,9 8,0 ENE 19,3 0,0 60 -
09:34 -6,5 -11,2 22,5 East 41,8 0,0 58 -
09:39 -6,5 -11,2 19,3 East 25,7 0,0 58 -
09:44 -6,4 -11,4 24,1 East 38,6 0,0 57 -
09:49 -6,4 -11,5 19,3 East 35,4 0,0 56 -
09:54 -6,4 -11,4 19,3 East 35,4 0,0 56 -
09:59 -6,3 -11,6 19,3 East 27,4 0,0 55 -
10:04 -6,2 -11,2 14,5 ESE 19,3 0,0 57 -
10:09 -6,1 -11,2 22,5 East 40,2 0,0 57 -
10:14 -6,0 -11,2 9,7 East 24,1 0,0 55 -
10:19 -6,0 -11,1 16,1 East 24,1 0,0 56 -
10:24 -6,0 -11,2 17,7 ENE 24,1 0,0 55 -
10:29 -6,0 -11,2 19,3 ESE 27,4 0,0 55 -
10:34 -5,8 -10,9 19,3 East 33,8 0,0 56 -
10:39 -5,8 -11,1 20,9 ESE 37,0 0,0 55 -
10:44 -5,7 -10,8 20,9 ESE 27,4 0,0 56 -
10:49 -5,6 -10,7 19,3 East 27,4 0,0 56 -
10:54 -5,6 -10,9 19,3 East 27,4 0,0 55 -
10:59 -5,7 -10,9 14,5 ESE 27,4 0,0 55 -
11:04 -5,6 -10,9 22,5 ESE 25,7 0,0 55 -
11:09 -5,4 -10,7 24,1 ESE 27,4 0,0 55 -
11:14 -5,3 -10,7 8,0 ESE 19,3 0,0 55 -
11:19 -5,3 -10,7 9,7 ESE 11,3 0,0 55 -
11:24 -5,3 -10,6 8,0 East 17,7 0,0 55 -
11:29 -5,3 -10,6 12,9 East 19,3 0,0 55 -
11:34 -5,3 -10,8 9,7 East 16,1 0,0 54 -
11:39 -5,3 -10,7 12,9 East 17,7 0,0 54 -
11:44 -5,3 -10,7 8,0 ESE 9,7 0,0 54 -
11:49 -5,1 -10,4 14,5 ESE 19,3 0,0 55 -
11:54 -5,0 -10,3 16,1 East 20,9 0,0 55 -
11:59 -4,8 -10,2 24,1 ESE 35,4 0,0 54 -
12:04 -4,8 -10,2 24,1 ESE 25,7 0,0 54 -
12:09 -4,8 -10,4 14,5 ESE 17,7 0,0 53 -
12:14 -4,7 -10,2 14,5 ESE 24,1 0,0 54 -
12:19 -4,7 -10,3 8,0 East 9,7 0,0 53 -
12:24 -4,7 -10,4   Calm 12,9 0,0 53 -
12:29 -4,7 -10,3 17,7 ESE 25,7 0,0 53 -
12:34 -4,4 -10,2 25,7 SE 29,0 0,0 53 -
12:39 -4,3 -10,2 22,5 SE 25,7 0,0 52 -
12:44 -4,2 -10,2 24,1 ESE 33,8 0,0 51 -
12:49 -4,1 -10,2 16,1 ESE 19,3 0,0 51 -
12:54 -4,1 -10,1 16,1 SE 17,7 0,0 51 -
12:59 -4,1 -10,1 8,0 ESE 9,7 0,0 51 -
13:04 -4,0 -10,1 19,3 ESE 25,7 0,0 51 -
13:09 -4,0 -10,1 16,1 ESE 25,7 0,0 51 -
13:14 -3,9 -10,1 17,7 ESE 19,3 0,0 50 -
13:19 -3,8 -10,1 17,7 SSE 20,9 0,0 50 -
13:24 -3,8 -10,0 11,3 South 12,9 0,0 50 -
13:29 -3,9 -10,1 9,7 ENE 17,7 0,0 50 -
13:34 -3,9 -10,1 19,3 ENE 27,4 0,0 50 -
13:39 -3,8 -10,1 17,7 ESE 25,7 0,0 50 -
13:44 -3,6 -9,8 11,3 ESE 19,3 0,0 50 -
13:49 -3,6 -10,0 9,7 ENE 9,7 0,0 49 -
13:54 -3,7 -10,2 9,7 SSE 17,7 0,0 49 -
13:59 -3,4 -9,6 16,1 SW 17,7 0,0 50 -
14:04 -3,3 -9,6 16,1 SSW 19,3 0,0 50 -
14:09 -3,1 -9,7 11,3 WSW 20,9 0,0 49 -
14:14 -3,1 -9,7 14,5 West 17,7 0,0 48 -
14:19 -3,1 -9,7 11,3 NNW 16,1 0,0 48 -
14:24 -2,9 -9,4 22,5 South 25,7 0,0 49 -
14:29 -2,9 -9,9 9,7 South 11,3 0,0 46 -
14:34 -2,9 -10,1   Calm 9,7 0,0 45 -
14:39 -2,9 -9,9 19,3 ESE 25,7 0,0 46 -
14:44 -2,8 -9,7 19,3 ESE 24,1 0,0 47 -
14:49 -3,0 -9,8 16,1 ESE 19,3 0,0 47 -
14:54 -3,0 -10,2 16,1 ESE 22,5 0,0 45 -
14:59 -2,9 -10,0 11,3 SW 12,9 0,0 46 -
15:04 -2,9 -10,1 8,0 NNW 12,9 0,0 45 -
15:09 -2,8 -9,9 14,5 ESE 17,7 0,0 46 -
15:14 -2,7 -9,9 14,5 ESE 19,3 0,0 45 -
15:19 -2,7 -9,9 12,9 ESE 19,3 0,0 45 -
15:24 -2,7 -10,1 11,3 ESE 12,9 0,0 44 -
15:29 -2,7 -10,3   Calm 11,3 0,0 43 -
15:34 -2,8 -10,1   Calm   0,0 45 -
15:39 -2,9 -10,3   Calm 8,0 0,0 44 -
15:44 -3,2 -10,3   Calm   0,0 45 -
15:49 -3,2 -10,2   Calm 16,1 0,0 46 -
15:54 -3,3 -10,2 17,7 ESE 25,7 0,0 46 -
15:59 -3,4 -10,3 11,3 East 16,1 0,0 46 -
16:04 -3,7 -10,6 12,9 East 19,3 0,0 46 -
16:09 -3,8 -10,6 12,9 ESE 19,3 0,0 47 -
16:14 -3,8 -10,4 14,5 ESE 19,3 0,0 48 -
16:19 -3,8 -10,4 9,7 ESE 17,7 0,0 48 -
16:24 -3,8 -10,4 9,7 East 17,7 0,0 48 -
16:29 -3,9 -10,4 9,7 ESE 19,3 0,0 48 -
16:34 -3,9 -10,3 16,1 East 19,3 0,0 49 -
16:39 -3,9 -10,4 16,1 ESE 17,7 0,0 49 -
16:44 -4,0 -10,4 16,1 East 24,1 0,0 49 -
16:49 -4,1 -10,4 16,1 ESE 17,7 0,0 49 -
16:54 -4,1 -10,4   Calm 8,0 0,0 49 -
16:59 -4,2 -10,5 16,1 ESE 25,7 0,0 49 -
17:04 -4,3 -10,6 16,1 East 12,9 0,0 49 -
17:09 -4,3 -10,4 8,0 ESE 12,9 0,0 50 -
17:14 -4,3 -10,5 9,7 East 12,9 0,0 50 -
17:19 -4,3 -10,4 11,3 East 27,4 0,0 50 -

Download your copy of this data-set  here

Our weather-data as stored at Weather Underground. Script developed by Jim McMurry. Rewritten for template use Leuven-Template